Weather History for KIZG - February, 2014

Change the Weather History Date:

Saturday, February 22, 2014

  Actual Average Record
Temperature  
Mean Temperature 36 °F -  
Max Temperature 48 °F 33 °F 64 °F (1997)
Min Temperature 24 °F 9 °F -8 °F (2011)
Degree Days  
Heating Degree Days 29    
Moisture  
Dew Point 22 °F    
Average Humidity 63    
Maximum Humidity 100    
Minimum Humidity 27    
Precipitation  
Precipitation 0.00 in - - ()
Sea Level Pressure  
Sea Level Pressure 29.80 in    
Wind  
Wind Speed 4 mph (SW)    
Max Wind Speed 15 mph    
Max Gust Speed 29 mph    
Visibility 8 miles    
Events Fog    
Averages and records for this station are not official NWS values.
T = Trace of Precipitation, MM = Missing Value Source: NWS Daily Summary

Daily Weather History Graph

Daily Weather History Graph

Search for Another Location

Airport or City:

Trip Planner

Search our weather history database for the weather conditions in past years. The results will help you decide how hot, cold, wet, or windy it might be!

Date:

Astronomy

Feb. 22, 2014 Rise Set
Actual Time 6:32 AM EST 5:22 PM EST
Civil Twilight 6:03 AM EST 5:52 PM EST
Nautical Twilight 5:29 AM EST 6:25 PM EST
Astronomical Twilight 4:56 AM EST 6:59 PM EST
Moon 12:29 AM EST (2/22) 10:26 AM EST (2/22)
Length of Visible Light 11h 49m
Length of Day
10h 50m
Waning Gibbous, 50% of the Moon is Illuminated
Feb 22
Waning Gibbous
Feb 22
Last Quarter
Mar 1
New
Mar 8
First Quarter
Mar 16
Full

Hourly Weather History & Observations

Time (EST) Temp. Windchill Dew Point Humidity Pressure Visibility Wind Dir Wind Speed Gust Speed Precip Events Conditions
12:54 AM 30.0 °F - 28.0 °F 92% 29.79 in 6.0 mi Calm Calm - N/A   Clear
1:04 AM 28.9 °F - 28.0 °F 96% 29.77 in 1.5 mi Calm Calm - N/A   Clear
1:14 AM 28.0 °F - 27.0 °F 96% 29.77 in 1.2 mi Calm Calm - N/A   Clear
1:18 AM 27.0 °F - 26.1 °F 96% 29.77 in 1.0 mi Calm Calm - N/A   Mist
1:39 AM 28.0 °F - 26.1 °F 92% 29.77 in 0.2 mi Calm Calm - N/A Fog Light Freezing Fog
1:50 AM 26.6 °F - 26.6 °F 100% 29.77 in 0.5 mi Calm Calm - N/A Fog Light Freezing Fog
1:54 AM 27.0 °F - 25.0 °F 92% 29.79 in 0.8 mi Calm Calm - N/A   Mist
2:09 AM 27.0 °F - 25.0 °F 92% 29.78 in 1.5 mi Calm Calm - N/A   Scattered Clouds
2:11 AM 27.0 °F - 25.0 °F 92% 29.78 in 3.0 mi Calm Calm - N/A   Scattered Clouds
2:54 AM 25.0 °F - 23.0 °F 92% 29.82 in 10.0 mi Calm Calm - N/A   Scattered Clouds
3:54 AM 25.0 °F 20.7 °F 21.9 °F 88% 29.82 in 10.0 mi South 3.5 mph - N/A   Clear
4:54 AM 24.1 °F 19.7 °F 21.9 °F 91% 29.84 in 10.0 mi WSW 3.5 mph - N/A   Clear
5:54 AM 24.1 °F 19.7 °F 21.0 °F 88% 29.84 in 10.0 mi WSW 3.5 mph - N/A   Clear
6:54 AM 26.1 °F 20.5 °F 24.1 °F 92% 29.86 in 10.0 mi West 4.6 mph - N/A   Clear
7:54 AM 34.0 °F 31.0 °F 28.9 °F 82% 29.86 in 10.0 mi Variable 3.5 mph - N/A   Clear
8:54 AM 39.0 °F 34.8 °F 26.1 °F 60% 29.87 in 10.0 mi SW 5.8 mph - N/A   Clear
9:54 AM 43.0 °F 38.8 °F 23.0 °F 45% 29.85 in 10.0 mi SW 6.9 mph - N/A   Clear
10:54 AM 45.0 °F 39.3 °F 21.9 °F 40% 29.82 in 10.0 mi SW 11.5 mph 20.7 mph N/A   Clear
11:54 AM 48.0 °F - 21.0 °F 34% 29.80 in 10.0 mi Variable 6.9 mph 16.1 mph N/A   Clear
12:54 PM 46.9 °F - 19.9 °F 34% 29.78 in 10.0 mi WSW 13.8 mph 28.8 mph N/A   Scattered Clouds
1:54 PM 48.0 °F - 19.9 °F 33% 29.77 in 10.0 mi SW 12.7 mph 21.9 mph N/A   Mostly Cloudy
2:54 PM 46.9 °F - 21.0 °F 36% 29.77 in 10.0 mi WSW 13.8 mph 24.2 mph N/A   Mostly Cloudy
3:54 PM 48.0 °F - 21.0 °F 34% 29.76 in 10.0 mi WSW 12.7 mph 27.6 mph N/A   Mostly Cloudy
4:54 PM 46.0 °F 41.4 °F 21.0 °F 37% 29.77 in 10.0 mi SW 9.2 mph 18.4 mph N/A   Mostly Cloudy
5:54 PM 46.0 °F 39.6 °F 19.9 °F 35% 29.77 in 10.0 mi SW 15.0 mph 26.5 mph N/A   Clear
6:54 PM 45.0 °F 41.2 °F 19.0 °F 36% 29.80 in 10.0 mi WSW 6.9 mph - N/A   Clear
7:54 PM 44.1 °F 39.5 °F 18.0 °F 35% 29.81 in 10.0 mi SW 8.1 mph - N/A   Clear
8:54 PM 43.0 °F 36.0 °F 12.0 °F 28% 29.81 in 10.0 mi WSW 13.8 mph 28.8 mph N/A   Clear
9:54 PM 42.1 °F 37.7 °F 10.0 °F 27% 29.82 in 10.0 mi SW 6.9 mph 16.1 mph N/A   Clear
10:54 PM 43.0 °F 37.7 °F 10.9 °F 27% 29.83 in 10.0 mi WSW 9.2 mph 21.9 mph N/A   Clear
11:54 PM 42.1 °F 36.6 °F 10.9 °F 28% 29.86 in 10.0 mi SW 9.2 mph 20.7 mph N/A   Clear